Notices

What's New in latest Release from April 7th, 2021:

- Updated Glossary, including Speed of Maximum Gust, and Total Hourly Precipitation

- Updated national and regional climate services offices contacts and prices information

- Addition of station inventory lists for 1981-2010, 1971-2000, and 1961-1990 Normals.

If you haven't already, please take our survey and provide feedback about our website: https://eccc.sondage-survey.ca/f/LanguageSelection.aspx?s=442ca660-fcf1-47c0-95a9-59707d6fd709

Hourly Data Report for October 03, 2020

CARBERRY CS
MANITOBA
Current Station Operator: ECCC - MSC

49°54'20.900" N
99°21'26.800" W
383.50 m
5010547
71170
WZE

Download Data

Hourly Data (October 2020)
Hourly Data Report for October 3, 2020
TIME
LST
Temp Definition
°C
Dew Point Definition
°C
Rel Hum Definition
%
Precip. Amount Definition
mm

Wind Dir Definition
10's deg

Wind Spd Definition
km/h
Visibility Definition
km
Stn Press Definition
kPa
Hmdx Definition


Wind Chill Definition


Weather Definition


00:00 5.1 3.2 87 0.0 10 4   97.54     LegendNANA
01:00 4.6 4.0 96 0.0 8 2   97.55     LegendNANA
02:00 4.2 3.2 93 0.0 0 1   97.55     LegendNANA
03:00 4.2 2.6 89 0.0 3 6   97.56     LegendNANA
04:00 3.6 1.7 87 0.0 1 4   97.60     LegendNANA
05:00 2.3 1.6 96 0.0 3 4   97.62     LegendNANA
06:00 -0.5 -0.6 100 0.0 33 3   97.64   -1 LegendNANA
07:00 -1.3 -1.4 100 0.0 34 5   97.69   -3 LegendNANA
08:00 1.4 1.3 100 0.0 31 6   97.70     LegendNANA
09:00 5.2 2.3 82 0.0 36 6   97.75     LegendNANA
10:00 7.5 1.7 67 0.0 2 3   97.79     LegendNANA
11:00 8.2 0.7 59 0.0 3 2   97.80     LegendNANA
12:00 9.5 0.5 53 0.0 1 7   97.76     LegendNANA
13:00 10.5 -0.2 47 0.0 36 7   97.73     LegendNANA
14:00 10.6 -1.0 44 0.0 5 8   97.72     LegendNANA
15:00 11.3 -2.2 39 0.0 34 6   97.68     LegendNANA
16:00 12.0 -1.6 39 0.0 3 10   97.67     LegendNANA
17:00 10.5 -1.2 44 0.0 34 9   97.67     LegendNANA
18:00 9.1 0.0 53 0.0 9 5   97.66     LegendNANA
19:00 5.9 -0.4 64 0.0 6 3   97.68     LegendNANA
20:00 4.1 -0.5 72 0.0 8 9   97.70     LegendNANA
21:00 3.7 0.3 79 0.0 9 5   97.68     LegendNANA
22:00 5.2 0.8 73 0.0 14 8   97.68     LegendNANA
23:00 5.8 0.1 67 0.0 14 12   97.65     LegendNANA

Notes on Data Quality.

Legend

  • E = Estimated
  • M = Missing
  • NA = Not Available*
  • [empty] = Indicates an unobserved value
Date modified: